Regional Weather Roundup
Issued by NWS Charleston, SC

Current Version | Previous Version | Graphics & Text | Print | Product List | Glossary On
Versions: 1 2 3 4 5 6 7 8 9 10 11 12 13 14 15 16 17 18 19 20 21 22 23 24 25 26 27 28 29 30 31 32 33 34 35 36 37 38 39 40 41 42 43 44 45 46 47 48 49 50
250
ASUS42 KCHS 251227
RWRCHS

REGIONAL WEATHER ROUNDUP
NATIONAL WEATHER SERVICE CHARLESTON SC
800 AM EDT SUN JUN 25 2017

NOTE: "FAIR" INDICATES FEW OR NO CLOUDS BELOW 12,000 FEET WITH NO
SIGNIFICANT WEATHER AND/OR OBSTRUCTIONS TO VISIBILITY.

NOT ALL STATIONS ARE QUALITY CONTROLLED. USE DATA WITH CAUTION...
ESPECIALLY DEWPOINT OBSERVATIONS.

SCZ027-030-031-034>040-042>050-251300-
...SOUTHEAST SOUTH CAROLINA...

CITY           SKY/WX    TMP DP  RH WIND       PRES   REMARKS
N CHARLESTON   MOSUNNY   78  72  81 NW9       30.06R
6HR MIN TEMP:  76; 6HR MAX TEMP:  79; 6HR PCP: TRACE;

WATERFRONT PRK   N/A     80  75  84 VRB2      30.04R
JOHNS ISLAND   FAIR      81  75  83 W8        30.07R
PINOPOLIS        N/A     75  75 100 W7        29.99R
MONCKS CORNER  FAIR      75  72  88 CALM      30.07R
SUMMERVILLE    FAIR      75  72  88 NW3       30.08R
BEAUFORT MCAS  SUNNY     80  76  87 CALM      30.07R
6HR MIN TEMP:  76; 6HR MAX TEMP:  80;

BEAUFORT ARPT  FAIR      79  73  83 N5        30.07R
HILTON HEAD IS SUNNY     81  77  89 N5        30.08R
WALTERBORO     CLOUDY    77  72  83 CALM      30.08R
ALLENDALE      PTSUNNY   77  75  94 CALM      30.07R

...SOUTHERN MIDLANDS AND PEE DEE...

CITY           SKY/WX    TMP DP  RH WIND       PRES   REMARKS
GEORGETOWN     FAIR      77  77 100 W7        30.06S
KINGSTREE      CLOUDY    73  72  94 W6        30.07R
ORANGEBURG     CLOUDY    75  73  93 CALM      30.07S
6HR MIN TEMP:  74; 6HR MAX TEMP:  75; 6HR PCP: TRACE;

BARNWELL       PTSUNNY   77  75  94 CALM      30.09R
AIKEN          FAIR      73  70  88 CALM      30.11S
MANNING        FAIR      75  75 100 W3        30.07S
COLUMBIA       PTSUNNY   73  70  90 SW3       30.07R
6HR MIN TEMP:  73; 6HR MAX TEMP:  76; 6HR PCP: TRACE;

SUMTER         CLOUDY    74  71  91 SW7       30.05R
6HR MIN TEMP:  73; 6HR MAX TEMP:  75;

FLORENCE       CLOUDY    76  73  91 SW5       30.05R
6HR MIN TEMP:  74; 6HR MAX TEMP:  76;

MYRTLE BEACH   MOSUNNY   77  73  88 SW8       30.05R
N MYRTLE BEACH CLOUDY    77  74  90 W5        30.03S
6HR MIN TEMP:  76; 6HR MAX TEMP:  79;


$$

GAZ063-065-086>088-099>101-113>116-118-119-134>141-150-251300-
...SOUTHEAST GEORGIA...

CITY           SKY/WX    TMP DP  RH WIND       PRES   REMARKS
SAVANNAH ARPT  MOSUNNY   79  74  84 CALM      30.07R
6HR MIN TEMP:  75; 6HR MAX TEMP:  80;

HUNTER AAF     SUNNY     79  76  89 S6        30.05R
6HR MIN TEMP:  75; 6HR MAX TEMP:  79;

FORT STEWART   SUNNY     77  73  88 SW6       30.05R
6HR MIN TEMP:  74; 6HR MAX TEMP:  78; 6HR PCP: TRACE;

STATESBORO     PTSUNNY   78  78 100 CALM      30.08R
SYLVANIA       CLOUDY    77  77  99 CALM      30.09R
CLAXTON        FAIR      78  74  88 CALM      30.08R

...CSRA...CENTRAL AND FAR SOUTHEAST GEORGIA...

CITY           SKY/WX    TMP DP  RH WIND       PRES   REMARKS
THOMSON        SUNNY     73  69  88 CALM      30.14R
AUGUSTA-BUSH   MOSUNNY   77  73  87 CALM      30.07R
6HR MIN TEMP:  74; 6HR MAX TEMP:  77;

AUGUSTA-DANIEL SUNNY     78  67  68 N3        30.08S
SWAINSBORO     CLOUDY    77  77 100 CALM      30.09R
VIDALIA        MOSUNNY   77  77 100 S5        30.08R
EASTMAN        CLOUDY    78  78 100 CALM      30.11R
HAZLEHURST       N/A     81  79  94 CALM      30.07S
ALMA           MOSUNNY   78  75  90 SW8       30.09R
6HR MIN TEMP:  74; 6HR MAX TEMP:  79;

WAYCROSS       CLOUDY    79  79 100 SW5       30.10R
JESUP          FAIR      77  72  83 SW3       30.09R
BAXLEY         FAIR      79  79 100 SW5       30.09R
BRUNSWICK      SUNNY     79  77  94 W7        30.10R
SAINT SIMONS   SUNNY     80  75  84 SW12      30.08R
6HR MIN TEMP:  77; 6HR MAX TEMP:  81;


$$

SCZ027-028-034-036>038-045-046-048>050-GAZ119-141-251300-
...LAKE AND SUPPLEMENTAL COASTAL OBSERVATIONS...

STATION/POSITION TIME  TEMP    WIND        PRES    WAVE   SWELL
                       AIR SEA DIR/SP/G            HT/PER HT/PER/DIR
                 (UTC) (F)     (DEG/KT/KT) (MB)    (FT/S) (FT/S/D)
WINYAH BAY       1145   78     280/  7     1017.0S
LAKE MURRAY      1150   74     290/  3/  7 1017.3R
ACE BASIN NERRS  1145   77        CALM     1018.0S
FORT PULASKI     1200   80 84  230/  6/  8 1018.6
SAPELO ISLAND    1200   79     230/ 10     1019.0

$$

ANZ835-935-AMZ111-154-330-350-352-354-370-450-454-472-251300-
...C-MAN AND BUOY OBSERVATIONS...

STATION/POSITION TIME  TEMP    WIND        PRES    WAVE   SWELL
                       AIR SEA DIR/SP/G            HT/PER HT/PER/DIR
                 (UTC) (F)     (DEG/KT/KT) (MB)    (FT/S) (FT/S/D)
BUOY 41004       1210   81 81  220/ 16/ 19 1017.4
BUOY 41008       1150   81 82  220/ 14/ 16 1018.0R   3/ 5   2/ 80/ 9
FOLLY BEACH CMAN 1200   79     290/  6/  9 1018.5R
CAPERS NEARSHORE 1208   84 83  300/ 10/ 14 1017.6R
FRIPP NEARSHORE  1208   81 83  320/  6/ 10 1018.1R


STATION/POSITION TIME  TEMP    WIND        PRES    WAVE   SWELL
                       AIR SEA DIR/SP/G            HT/PER HT/PER/DIR
                 (UTC) (F)     (DEG/KT/KT) (MB)    (FT/S) (FT/S/D)
5E ST. MARYS GA  1200      79                N/A     3/ 8
FRYING PAN BUOY  1210   80 80  230/ 14/ 17 1017.5
BUOY 41025       1150   79 80  250/ 16/ 17 1016.5R   5/ 7   2/150/ 9
CAPE LOOKOUT NC  1200   79     250/  7/  9 1016.6R
BUOY 41002       1150   81 80  200/ 14/ 16 1020.4R   4/ 6   2/ 80/ 9
BUOY 41010       1210   83 83  170/ 10/ 12 1020.5
ST AUGUSTINE FL  1200   78 76  280/  4/  5 1019.7R


$$




USA.gov is the U.S. government's official web portal to all federal, state and local government web resources and services.